{"data":{"norad_id":56793,"intl_designator":"2023-078AC","name":"STARLINK-6052","alt_names":[],"object_type":"PAYLOAD","status":"ACTIVE","operator":null,"country":"US","launch_date":"2023-05-31","launch_site_code":"AFWTR","launch_vehicle":null,"mission":null,"orbit_class":"UNKNOWN","rcs_meters":null,"size_class":null,"mass_kg":null,"dimensions":null,"purposes":["comms"],"wikipedia_slug":null,"has_3d_model":false,"image_url":null,"decayed_at":null,"tle_current":{"epoch":"2026-05-25T03:39:46.145952Z","epoch_age_seconds":58557,"freshness":"FRESH","line1":"1 56793U 23078AC  26145.15261743  .00000130  00000+0  18699-4 0  9997","line2":"2 56793  69.9983 151.6656 0003808 266.6791  93.3933 14.98328614164133","mean_motion":14.98328614,"eccentricity":0.0003808,"inclination_deg":69.9983,"raan_deg":151.6656,"arg_perigee_deg":266.6791,"mean_anomaly_deg":93.3933,"bstar":1.8699e-5,"rev_number":16413,"period_min":96.10708802762,"perigee_km":569.41354195337,"apogee_km":574.70681212341,"semimajor_km":6950.1971770384,"source":"CELESTRAK","updated_at":"2026-05-25T13:38:18.156782Z"}}}